MST,Max TemperatureF,Mean TemperatureF,Min TemperatureF,Max Dew PointF,MeanDew PointF,Min DewpointF,Max Humidity, Mean Humidity, Min Humidity, Max Sea Level PressureIn, Mean Sea Level PressureIn, Min Sea Level PressureIn, Max VisibilityMiles, Mean VisibilityMiles, Min VisibilityMiles, Max Wind SpeedMPH, Mean Wind SpeedMPH, Max Gust SpeedMPH,PrecipitationIn, CloudCover, Events, WindDirDegrees
2013-4-1,77,65,53,28,22,7,38,21,7,29.99,29.92,29.86,10,10,10,22,10,30,0.00,3,,253
2013-4-2,71,60,50,21,16,7,30,19,8,29.94,29.88,29.83,10,10,10,17,12,28,0.00,1,,275
2013-4-3,73,62,50,23,17,10,32,19,9,30.03,29.98,29.93,10,10,10,16,10,22,0.00,0,,273
2013-4-4,78,64,51,27,17,7,35,17,7,30.08,30.00,29.93,10,10,10,13,6,20,0.00,6,,217
2013-4-5,80,68,55,28,17,10,27,15,8,29.95,29.90,29.83,10,10,10,23,11,33,0.00,3,,242
2013-4-6,79,65,51,30,26,21,44,24,13,30.01,29.89,29.82,10,10,10,23,8,31,0.00,0,,245
2013-4-7,79,65,51,31,25,19,43,24,12,29.98,29.81,29.71,10,10,10,18,10,29,0.00,0,,260
2013-4-8,75,64,53,36,30,25,41,29,16,29.72,29.53,29.39,10,10,10,41,21,63,0.06,1,,197
2013-4-9,57,50,44,39,28,19,76,47,23,29.88,29.72,29.54,10,9,4,34,22,47,0.00,5,Rain,246
2013-4-10,60,50,39,27,22,16,57,34,20,30.00,29.92,29.87,10,10,10,21,11,30,0.00,1,,276
2013-4-11,73,58,42,27,18,9,46,24,8,29.98,29.87,29.76,10,10,10,14,7,,0.00,1,,260
2013-4-12,73,60,46,21,18,14,32,19,10,29.81,29.77,29.71,10,10,10,14,6,22,0.00,6,,215
2013-4-13,,,,,,,,,,,,,,,,,,,0.00,,,-1
2013-4-14,62,61,60,29,29,28,29,29,29,29.74,29.73,29.72,10,10,10,13,12,22,0.00,0,,198
2013-4-15,77,65,53,34,26,19,38,23,12,29.78,29.74,29.70,10,10,10,26,10,34,0.00,0,,215
2013-4-16,75,68,60,39,22,10,45,21,8,29.79,29.75,29.70,10,10,10,31,15,40,0.00,1,,195
2013-4-17,62,54,44,36,21,7,44,27,15,30.06,29.82,29.69,10,10,10,36,14,44,0.00,1,,252
2013-4-18,64,48,33,9,5,-2,32,16,8,30.12,30.04,29.98,10,10,10,14,8,17,0.00,0,,308
2013-4-19,71,56,42,3,-3,-9,19,10,4,30.16,30.05,29.94,10,10,10,14,4,20,0.00,0,,137
2013-4-20,78,64,50,11,-1,-8,16,8,4,29.97,29.92,29.86,10,10,10,22,11,30,0.00,0,,280
2013-4-21,82,68,55,12,6,-4,17,10,4,30.04,29.97,29.91,10,10,10,14,10,22,0.00,0,,271
2013-4-22,84,70,55,16,9,3,20,10,5,29.96,29.88,29.79,10,10,10,21,9,28,0.00,1,,249
2013-4-23,80,68,55,27,14,10,31,12,7,30.00,29.83,29.77,10,10,10,24,12,32,0.00,1,,241
2013-4-24,82,68,55,23,15,5,25,13,6,29.92,29.87,29.83,10,10,10,17,8,23,0.00,5,,216
2013-4-25,78,68,53,25,15,7,26,14,6,30.02,29.88,29.83,10,10,10,32,11,46,0.00,2,,238
2013-4-26,80,64,48,25,11,-4,34,16,4,30.10,30.04,29.99,10,10,10,16,8,23,0.00,0,,264
2013-4-27,82,68,55,21,15,6,24,14,6,30.19,29.98,29.89,10,10,10,13,9,17,0.00,0,,257
2013-4-28,84,72,59,32,10,1,23,11,4,29.91,29.85,29.75,10,10,10,14,9,17,0.00,0,,282
2013-4-29,87,74,62,18,5,1,13,7,4,29.83,29.76,29.68,10,10,10,21,10,29,0.00,1,,272
2013-4-30,86,72,59,23,14,9,20,11,5,29.81,29.76,29.71,10,10,10,24,11,31,0.00,0,,267